N7WDZ-WX Weather Reports


time (UTC)temp
C
wind
direction
speed
KPH
gust
KPH
rain 1hr
cm
rain 24hr
cm
rain mn
cm
humidity
%
barometer
mb
20260502163056 25 186 4.8 12.9 0.00 0.00 0.00 14 1017.3
20260502162542 25 120 4.8 11.3 0.00 0.00 0.00 14 1017.3
20260502162041 24 0 4.8 11.3 0.00 0.00 0.00 14 1017.3
20260502161558 24 145 4.8 11.3 0.00 0.00 0.00 14 1017.3
20260502161040 25 122 4.8 9.7 0.00 0.00 0.00 14 1017.3
20260502160540 24 0 4.8 9.7 0.00 0.00 0.00 14 1017.2
20260502152039 25 0 0.0 0.0 0.00 0.00 0.00 17 1017.0
20260502151559 23 0 0.0 0.0 0.00 0.00 0.00 17 1017.0
20260502151042 22 0 0.0 0.0 0.00 0.00 0.00 19 1017.0
20260502150543 22 0 0.0 0.0 0.00 0.00 0.00 19 1017.0
20260502130542 19 0 0.0 8.0 0.00 0.00 0.00 17 1016.1
20260502123538 20 309 4.8 11.3 0.00 0.00 0.00 16 1015.8
20260502123051 20 312 6.4 11.3 0.00 0.00 0.00 16 1015.7
20260502122538 20 326 4.8 9.7 0.00 0.00 0.00 16 1015.7
20260502122040 20 330 4.8 12.9 0.00 0.00 0.00 16 1015.7
20260502121555 20 330 6.4 12.9 0.00 0.00 0.00 16 1015.7
20260502121039 20 304 4.8 12.9 0.00 0.00 0.00 16 1015.6
20260502120542 20 320 6.4 11.3 0.00 0.00 0.00 16 1015.6
20260502115542 20 319 6.4 12.9 0.00 0.00 0.00 16 1015.6
20260502115042 20 320 4.8 11.3 0.00 0.00 0.00 16 1015.6
20260502114600 20 302 4.8 11.3 0.00 0.00 0.00 16 1015.6
20260502114041 20 324 4.8 9.7 0.00 0.00 0.00 16 1015.6
20260502113542 20 0 1.6 6.4 0.00 0.00 0.00 16 1015.6
20260502113053 20 309 1.6 9.7 0.00 0.00 0.00 16 1015.6
20260502112541 20 0 3.2 9.7 0.00 0.00 0.00 16 1015.5
20260502112041 20 314 3.2 8.0 0.00 0.00 0.00 16 1015.5
20260502111550 20 319 3.2 8.0 0.00 0.00 0.00 16 1015.5
20260502111042 20 287 3.2 9.7 0.00 0.00 0.00 16 1015.5
20260502110543 20 310 4.8 9.7 0.00 0.00 0.00 16 1015.5
20260502110053 20 309 4.8 9.7 0.00 0.00 0.00 16 1015.5
20260502105542 19 316 3.2 6.4 0.00 0.00 0.00 16 1015.5
20260502105043 19 316 1.6 4.8 0.00 0.00 0.00 16 1015.5
20260502104554 20 0 0.0 0.0 0.00 0.00 0.00 16 1015.5
20260502104043 20 0 0.0 4.8 0.00 0.00 0.00 15 1015.4
20260502103542 20 0 0.0 4.8 0.00 0.00 0.00 15 1015.5
20260502103049 20 319 1.6 8.0 0.00 0.00 0.00 15 1015.5
20260502102542 20 343 3.2 9.7 0.00 0.00 0.00 15 1015.5
20260502102042 20 319 4.8 9.7 0.00 0.00 0.00 15 1015.4
20260502101550 20 328 3.2 8.0 0.00 0.00 0.00 16 1015.4
20260502101039 20 309 3.2 8.0 0.00 0.00 0.00 16 1015.4
20260502100541 20 309 4.8 8.0 0.00 0.00 0.00 15 1015.5
20260502100104 20 308 3.2 8.0 0.00 0.00 0.00 15 1015.4
20260502091042 21 70 1.6 11.3 0.00 0.00 0.00 15 1015.4
20260502090542 20 0 3.2 11.3 0.00 0.00 0.00 16 1015.5
20260502071129 23 22 4.8 20.9 0.00 0.00 0.00 11 1015.5
20260502070541 23 82 8.0 20.9 0.00 0.00 0.00 11 1015.4
20260502070048 23 0 1.6 16.1 0.00 0.00 0.00 11 1015.5
20260502065541 24 0 3.2 16.1 0.00 0.00 0.00 11 1015.4
20260502065042 23 74 3.2 12.9 0.00 0.00 0.00 11 1015.5
20260502064556 23 51 4.8 17.7 0.00 0.00 0.00 11 1015.4
20260502064041 23 44 1.6 17.7 0.00 0.00 0.00 11 1015.4
20260502063542 22 18 8.0 16.1 0.00 0.00 0.00 12 1015.4
20260502063052 22 0 0.0 0.0 0.00 0.00 0.00 14 1015.4
20260502062544 22 0 0.0 4.8 0.00 0.00 0.00 13 1015.3
20260502062042 22 0 0.0 4.8 0.00 0.00 0.00 14 1015.3
20260502061548 22 0 0.0 0.0 0.00 0.00 0.00 14 1015.3
20260502061043 23 0 0.0 0.0 0.00 0.00 0.00 13 1015.3
20260502060542 22 0 0.0 0.0 0.00 0.00 0.00 11 1015.1
20260502060050 22 0 0.0 1.6 0.00 0.00 0.00 13 1015.1
20260502055543 22 0 0.0 3.2 0.00 0.00 0.00 12 1015.1
20260502055042 23 0 0.0 3.2 0.00 0.00 0.00 12 1015.0
20260502054547 23 0 0.0 4.8 0.00 0.00 0.00 12 1015.1
20260502054044 23 0 0.0 4.8 0.00 0.00 0.00 12 1015.0
20260502053541 23 0 0.0 1.6 0.00 0.00 0.00 12 1015.0
20260502053052 23 0 0.0 1.6 0.00 0.00 0.00 12 1015.0
20260502052543 23 0 0.0 1.6 0.00 0.00 0.00 13 1015.0
20260502052038 23 0 0.0 0.0 0.00 0.00 0.00 13 1015.0
20260502051627 23 0 0.0 6.4 0.00 0.00 0.00 13 1014.9
20260502051040 23 0 3.2 6.4 0.00 0.00 0.00 13 1014.8
20260502050542 23 0 0.0 11.3 0.00 0.00 0.00 12 1014.7
20260502050052 23 284 4.8 11.3 0.00 0.00 0.00 12 1014.6
20260502045542 23 334 4.8 8.0 0.00 0.00 0.00 13 1014.5
20260502045042 23 334 0.0 6.4 0.00 0.00 0.00 13 1014.4
20260502044557 23 0 3.2 6.4 0.00 0.00 0.00 13 1014.4
20260502044042 23 330 1.6 6.4 0.00 0.00 0.00 13 1014.3
20260502043542 23 0 0.0 0.0 0.00 0.00 0.00 12 1014.2
20260502043050 23 0 0.0 4.8 0.00 0.00 0.00 12 1014.1
20260502042542 24 0 0.0 4.8 0.00 0.00 0.00 12 1014.1
20260502042042 24 356 0.0 1.6 0.00 0.00 0.00 12 1014.0
20260502041552 24 0 0.0 6.4 0.00 0.00 0.00 12 1013.9
20260502041042 24 0 0.0 6.4 0.00 0.00 0.00 12 1013.9
20260502040540 24 0 0.0 6.4 0.00 0.00 0.00 11 1013.8
20260502040047 25 0 0.0 8.0 0.00 0.00 0.00 11 1013.8
20260502035543 24 355 1.6 9.7 0.00 0.00 0.00 11 1013.7
20260502035040 24 57 4.8 11.3 0.00 0.00 0.00 12 1013.7
20260502034552 25 23 6.4 11.3 0.00 0.00 0.00 11 1013.6
20260502034041 25 0 0.0 8.0 0.00 0.00 0.00 11 1013.5
20260502033542 25 0 3.2 14.5 0.00 0.00 0.00 11 1013.5
20260502033056 25 0 4.8 14.5 0.00 0.00 0.00 11 1013.4
20260502032538 25 51 4.8 9.7 0.00 0.00 0.00 11 1013.4
20260502032042 25 30 1.6 9.7 0.00 0.00 0.00 11 1013.3
20260502031607 25 45 0.0 8.0 0.00 0.00 0.00 11 1013.3
20260502031041 25 13 0.0 3.2 0.00 0.00 0.00 11 1013.1
20260502030541 25 0 0.0 4.8 0.00 0.00 0.00 11 1013.1
20260502030051 25 0 0.0 8.0 0.00 0.00 0.00 12 1013.0
20260502025541 26 353 1.6 8.0 0.00 0.00 0.00 11 1012.9
20260502025042 26 65 1.6 8.0 0.00 0.00 0.00 11 1012.8
20260502024555 26 0 0.0 6.4 0.00 0.00 0.00 12 1012.8
20260502024042 26 0 1.6 9.7 0.00 0.00 0.00 12 1012.7
20260502023541 26 349 1.6 14.5 0.00 0.00 0.00 11 1012.5
20260502023051 26 353 4.8 22.5 0.00 0.00 0.00 11 1012.5
20260502022544 26 330 8.0 22.5 0.00 0.00 0.00 11 1012.4
20260502022042 26 323 6.4 14.5 0.00 0.00 0.00 11 1012.4
20260502021552 27 319 6.4 14.5 0.00 0.00 0.00 11 1012.3
20260502021043 27 319 8.0 14.5 0.00 0.00 0.00 11 1012.3
20260502020545 27 330 6.4 12.9 0.00 0.00 0.00 11 1012.4
20260502020100 27 316 4.8 12.9 0.00 0.00 0.00 11 1012.3
20260502015539 27 342 4.8 16.1 0.00 0.00 0.00 10 1012.4
20260502015042 27 335 8.0 16.1 0.00 0.00 0.00 10 1012.2
20260502014546 27 340 8.0 17.7 0.00 0.00 0.00 10 1012.3
20260502014041 27 354 9.7 19.3 0.00 0.00 0.00 10 1012.1
20260502013540 27 357 11.3 19.3 0.00 0.00 0.00 10 1012.1
20260502013048 27 4 11.3 20.9 0.00 0.00 0.00 10 1012.1
20260502012542 27 9 9.7 20.9 0.00 0.00 0.00 10 1012.1
20260502012041 27 311 9.7 22.5 0.00 0.00 0.00 11 1012.1
20260502011552 27 304 11.3 22.5 0.00 0.00 0.00 10 1012.1
20260502011038 28 335 9.7 19.3 0.00 0.00 0.00 10 1012.1
20260502010538 28 322 6.4 19.3 0.00 0.00 0.00 11 1012.0
20260502010056 28 47 8.0 24.1 0.00 0.00 0.00 10 1012.1
20260502005543 28 345 12.9 24.1 0.00 0.00 0.00 10 1012.1
20260502005044 28 338 8.0 25.7 0.00 0.00 0.00 11 1012.0
20260502004559 28 349 9.7 32.2 0.00 0.00 0.00 11 1012.0
20260502004041 28 340 14.5 32.2 0.00 0.00 0.00 11 1012.1
20260502003541 28 314 17.7 30.6 0.00 0.00 0.00 11 1012.0
20260502003057 28 357 9.7 16.1 0.00 0.00 0.00 11 1011.9
20260502002541 28 342 6.4 17.7 0.00 0.00 0.00 11 1011.9
20260502002040 28 6 4.8 17.7 0.00 0.00 0.00 11 1012.0
20260502001558 28 328 6.4 17.7 0.00 0.00 0.00 11 1012.0
20260502001043 28 358 4.8 24.1 0.00 0.00 0.00 11 1012.1
20260502000541 28 357 6.4 24.1 0.00 0.00 0.00 11 1012.1
20260502000052 28 332 9.7 25.7 0.00 0.00 0.00 11 1012.1
20260501235543 28 333 12.9 25.7 0.00 0.00 0.00 11 1012.1
20260501235043 28 329 8.0 29.0 0.00 0.00 0.00 11 1012.0
20260501234601 28 328 9.7 29.0 0.00 0.00 0.00 11 1012.2
20260501234038 28 18 8.0 20.9 0.00 0.00 0.00 11 1012.2
20260501233541 28 0 0.0 20.9 0.00 0.00 0.00 10 1012.2
20260501233058 28 0 8.0 20.9 0.00 0.00 0.00 10 1012.2
20260501232541 28 343 12.9 20.9 0.00 0.00 0.00 10 1012.2
20260501232038 28 336 9.7 19.3 0.00 0.00 0.00 10 1012.3
20260501231605 28 319 1.6 20.9 0.00 0.00 0.00 11 1012.2
20260501231038 28 22 8.0 20.9 0.00 0.00 0.00 10 1012.2
20260501230542 28 295 11.3 20.9 0.00 0.00 0.00 10 1012.3
20260501230058 28 271 6.4 20.9 0.00 0.00 0.00 10 1012.3
20260501225541 28 0 3.2 19.3 0.00 0.00 0.00 10 1012.4
20260501225042 28 27 6.4 24.1 0.00 0.00 0.00 10 1012.5
20260501224544 28 313 14.5 24.1 0.00 0.00 0.00 10 1012.6
20260501224038 28 333 8.0 19.3 0.00 0.00 0.00 11 1012.5
20260501223538 28 0 0.0 17.7 0.00 0.00 0.00 10 1012.6
20260501223056 27 0 0.0 19.3 0.00 0.00 0.00 10 1012.6
20260501222538 28 345 11.3 19.3 0.00 0.00 0.00 9 1012.8
20260501222040 28 323 8.0 22.5 0.00 0.00 0.00 11 1012.9
20260501221555 28 45 12.9 22.5 0.00 0.00 0.00 10 1012.9
20260501221041 28 0 1.6 24.1 0.00 0.00 0.00 11 1012.9
20260501220542 28 314 11.3 24.1 0.00 0.00 0.00 11 1013.1
20260501220051 28 6 3.2 11.3 0.00 0.00 0.00 12 1013.1
20260501215542 27 0 3.2 29.0 0.00 0.00 0.00 12 1013.1
20260501215043 28 11 11.3 29.0 0.00 0.00 0.00 12 1013.3
20260501214600 28 345 9.7 22.5 0.00 0.00 0.00 12 1013.3
20260501214041 27 0 6.4 11.3 0.00 0.00 0.00 12 1013.3
20260501213541 27 0 4.8 14.5 0.00 0.00 0.00 13 1013.3
20260501213051 27 288 6.4 17.7 0.00 0.00 0.00 13 1013.4
20260501212538 27 313 9.7 24.1 0.00 0.00 0.00 13 1013.5
20260501212038 28 322 11.3 25.7 0.00 0.00 0.00 13 1013.6
20260501211545 27 300 8.0 25.7 0.00 0.00 0.00 14 1013.6
20260501211041 28 311 14.5 25.7 0.00 0.00 0.00 13 1013.8
20260501210541 28 321 12.9 24.1 0.00 0.00 0.00 13 1013.8
20260501210053 28 285 8.0 17.7 0.00 0.00 0.00 13 1013.8
20260501205543 28 160 0.0 8.0 0.00 0.00 0.00 14 1013.8
20260501205038 28 0 1.6 12.9 0.00 0.00 0.00 13 1013.9
20260501204552 27 0 3.2 24.1 0.00 0.00 0.00 14 1014.0
20260501204040 27 320 12.9 24.1 0.00 0.00 0.00 14 1014.0
20260501203542 27 293 11.3 19.3 0.00 0.00 0.00 15 1013.9
20260501203048 27 166 6.4 14.5 0.00 0.00 0.00 14 1013.9
20260501202542 27 0 4.8 19.3 0.00 0.00 0.00 14 1013.9
20260501202042 28 315 11.3 19.3 0.00 0.00 0.00 14 1014.0
20260501201554 28 98 0.0 16.1 0.00 0.00 0.00 14 1014.0
20260501201041 28 0 3.2 16.1 0.00 0.00 0.00 14 1014.0
20260501200541 28 169 3.2 17.7 0.00 0.00 0.00 14 1014.1
20260501200057 27 171 6.4 17.7 0.00 0.00 0.00 15 1014.1
20260501195542 26 148 4.8 14.5 0.00 0.00 0.00 15 1014.1
20260501195039 26 139 4.8 14.5 0.00 0.00 0.00 15 1014.3
20260501194600 27 117 3.2 12.9 0.00 0.00 0.00 15 1014.3
20260501194039 26 0 0.0 12.9 0.00 0.00 0.00 15 1014.4
20260501193544 26 148 6.4 12.9 0.00 0.00 0.00 15 1014.5
20260501193045 26 86 6.4 11.3 0.00 0.00 0.00 15 1014.6
20260501192540 27 81 3.2 12.9 0.00 0.00 0.00 15 1014.6
20260501192038 27 0 3.2 14.5 0.00 0.00 0.00 15 1014.8
20260501191550 27 172 4.8 14.5 0.00 0.00 0.00 15 1014.8
20260501191038 27 224 4.8 12.9 0.00 0.00 0.00 15 1014.9
20260501190543 26 159 6.4 16.1 0.00 0.00 0.00 15 1014.9
20260501190113 27 113 8.0 29.0 0.00 0.00 0.00 15 1015.0
20260501185542 26 127 6.4 29.0 0.00 0.00 0.00 15 1015.0
20260501185038 26 124 1.6 11.3 0.00 0.00 0.00 15 1014.8
20260501184548 26 311 0.0 11.3 0.00 0.00 0.00 15 1015.1
20260501184042 26 148 1.6 9.7 0.00 0.00 0.00 15 1015.3
20260501183542 26 283 1.6 11.3 0.00 0.00 0.00 15 1015.2
20260501183053 26 175 6.4 11.3 0.00 0.00 0.00 15 1015.4
20260501182541 26 179 3.2 9.7 0.00 0.00 0.00 15 1015.3
20260501182041 26 193 0.0 12.9 0.00 0.00 0.00 16 1015.4
20260501181554 25 152 3.2 12.9 0.00 0.00 0.00 16 1015.4
20260501181045 26 127 4.8 12.9 0.00 0.00 0.00 15 1015.4
20260501180541 25 208 3.2 12.9 0.00 0.00 0.00 16 1015.5
20260501180054 25 94 4.8 12.9 0.00 0.00 0.00 16 1015.6
20260501175542 25 78 3.2 12.9 0.00 0.00 0.00 17 1015.6
20260501175041 25 100 6.4 12.9 0.00 0.00 0.00 16 1015.7
20260501174607 25 37 8.0 12.9 0.00 0.00 0.00 16 1015.7
20260501174042 26 54 4.8 9.7 0.00 0.00 0.00 16 1015.6
20260501173544 26 191 0.0 8.0 0.00 0.00 0.00 16 1015.6
20260501173106 26 0 0.0 8.0 0.00 0.00 0.00 16 1015.7
20260501172542 25 0 0.0 8.0 0.00 0.00 0.00 16 1015.6
20260501172042 25 0 1.6 8.0 0.00 0.00 0.00 17 1015.6
20260501171555 24 0 1.6 14.5 0.00 0.00 0.00 17 1015.6
20260501171045 24 277 8.0 14.5 0.00 0.00 0.00 17 1015.7
20260501170542 24 321 3.2 11.3 0.00 0.00 0.00 17 1015.6
20260501170052 24 43 3.2 8.0 0.00 0.00 0.00 18 1015.6
20260501165542 24 350 0.0 16.1 0.00 0.00 0.00 18 1015.8
20260501165043 23 0 4.8 16.1 0.00 0.00 0.00 18 1015.8
20260501164555 23 316 0.0 12.9 0.00 0.00 0.00 19 1015.7
20260501164041 23 315 8.0 14.5 0.00 0.00 0.00 19 1015.8
20260501163541 23 329 6.4 16.1 0.00 0.00 0.00 19 1015.7